Date String (YYYY-MM-DD hh:mm:ss) UTC,Instrument flags,absolute air pressure of the measurement (hPa),sample flow rate (lpm),inlet stack bypass flow (lpm),air temperature of the measurement (°C),ambient temperature measured by the external sensor (°C),aerosol sample conditioner tube jacket temperature (°C),OPC LED temperature (°C),internal box temperature (°C),relative humidity of the measurement (%),span deviation,mass concentration of particles derived from Lorenz-Mie calculation of OPC scattering (μg/m³),mass concentration of particles derived from Lorenz-Mie calculation of OPC scattering (μg/m³),mass concentration of particles derived from Lorenz-Mie calculation of OPC scattering (μg/m³)
DateTimeUTC,F1_M11,P_M11,Q1_M11,Q2_M11,T1_M11,T2_M11,T3_M11,T4_M11,T5_M11,U1_M11,ZSPAN_M11,X2_M11,X0_M11,X1_M11
2023-09-16 22:00:00,SystemResetWarning,0835.8,5.00,000.00,028.0,027.1,000.0,036.2,029.8,18.9,0000.0,0004.01,0007.85,0003.69
2023-09-16 22:01:00,SystemResetWarning,0835.8,5.00,000.00,028.0,027.2,000.0,036.2,029.8,19.0,0000.0,0004.05,0007.83,0003.70
2023-09-16 22:02:00,SystemResetWarning,0835.8,5.00,000.00,028.1,027.0,000.0,036.2,029.8,19.2,0000.0,0004.07,0007.70,0003.71
2023-09-16 22:03:00,SystemResetWarning,0835.8,5.00,000.00,028.0,025.4,000.0,036.2,029.2,19.2,0000.0,0004.06,0007.11,0003.71
2023-09-16 22:04:00,SystemResetWarning,0835.8,5.00,000.00,027.8,024.0,000.0,036.1,028.9,18.7,0000.0,0004.08,0006.69,0003.72
2023-09-16 22:05:00,SystemResetWarning,0835.7,5.01,000.00,027.8,024.0,000.0,036.1,028.9,19.2,0000.0,0004.12,0007.81,0003.73
2023-09-16 22:06:00,SystemResetWarning,0835.8,5.00,000.00,027.7,024.3,000.0,036.1,029.0,19.7,0000.0,0004.14,0007.99,0003.74
2023-09-16 22:07:00,SystemResetWarning,0835.8,5.00,000.00,027.7,024.7,000.0,036.1,029.0,20.1,0000.0,0004.15,0007.98,0003.74
2023-09-16 22:08:00,SystemResetWarning,0835.8,5.00,000.00,027.7,025.1,000.0,036.1,029.2,20.0,0000.0,0004.20,0008.02,0003.75
2023-09-16 22:09:00,SystemResetWarning,0835.8,5.00,000.00,027.7,025.5,000.0,036.1,029.3,19.2,0000.0,0004.20,0008.00,0003.76
2023-09-16 22:10:00,SystemResetWarning,0835.8,5.00,000.00,027.7,025.8,000.0,036.1,029.4,18.6,0000.0,0004.20,0007.99,0003.76
2023-09-16 22:11:00,SystemResetWarning,0835.8,5.00,000.00,027.7,026.1,000.0,036.1,029.4,18.7,0000.0,0004.16,0007.91,0003.75
2023-09-16 22:12:00,SystemResetWarning,0835.8,5.00,000.00,027.8,026.4,000.0,036.1,029.5,19.3,0000.0,0004.15,0008.06,0003.75
2023-09-16 22:13:00,SystemResetWarning,0835.8,5.00,000.00,027.8,026.6,000.0,036.1,029.6,20.0,0000.0,0004.15,0008.33,0003.74
2023-09-16 22:14:00,SystemResetWarning,0835.8,5.00,000.00,027.9,026.8,000.0,036.1,029.7,19.1,0000.0,0004.18,0008.38,0003.75
2023-09-16 22:15:00,SystemResetWarning,0835.7,5.00,000.00,027.9,027.0,000.0,036.2,029.8,19.3,0000.0,0004.15,0008.28,0003.74
2023-09-16 22:16:00,SystemResetWarning,0835.8,5.00,000.00,028.0,027.1,000.0,036.2,029.8,19.6,0000.0,0004.14,0007.43,0003.75
2023-09-16 22:17:00,SystemResetWarning,0835.8,5.00,000.00,028.1,027.2,000.0,036.2,029.9,19.4,0000.0,0004.14,0007.34,0003.75
2023-09-16 22:18:00,SystemResetWarning,0835.8,4.99,000.00,028.1,027.1,000.0,036.3,029.8,19.8,0000.0,0004.15,0007.70,0003.76
2023-09-16 22:19:00,SystemResetWarning,0835.7,4.99,000.00,028.0,025.5,000.0,036.2,029.2,19.5,0000.0,0004.12,0008.01,0003.74
2023-09-16 22:20:00,SystemResetWarning,0835.7,5.00,000.00,027.9,024.1,000.0,036.2,028.9,19.3,0000.0,0004.10,0008.02,0003.72
2023-09-16 22:21:00,SystemResetWarning,0835.7,5.00,000.00,027.8,024.1,000.0,036.1,029.0,19.1,0000.0,0004.12,0008.06,0003.72
2023-09-16 22:22:00,SystemResetWarning,0835.8,5.01,000.00,027.7,024.4,000.0,036.1,029.0,19.4,0000.0,0004.13,0008.10,0003.72
2023-09-16 22:23:00,SystemResetWarning,0835.7,4.99,000.00,027.7,024.8,000.0,036.1,029.1,19.4,0000.0,0004.13,0007.91,0003.72
2023-09-16 22:24:00,SystemResetWarning,0835.7,4.99,000.00,027.7,025.2,000.0,036.1,029.2,19.6,0000.0,0004.11,0007.60,0003.71
2023-09-16 22:25:00,SystemResetWarning,0835.7,5.01,000.00,027.7,025.6,000.0,036.1,029.3,19.0,0000.0,0004.10,0007.60,0003.72
2023-09-16 22:26:00,SystemResetWarning,0835.7,5.01,000.00,027.7,025.9,000.0,036.1,029.4,19.1,0000.4,0004.10,0007.64,0003.72
2023-09-16 22:27:00,SystemResetWarning,0835.7,5.01,000.00,027.8,026.2,000.0,036.1,029.5,18.8,0000.0,0004.07,0007.62,0003.70
2023-09-16 22:28:00,SystemResetWarning,0835.6,5.00,000.00,027.8,026.5,000.0,036.1,029.6,18.9,0000.0,0004.09,0007.55,0003.71
2023-09-16 22:29:00,SystemResetWarning,0835.7,5.00,000.00,027.9,026.7,000.0,036.1,029.6,19.6,0001.2,0004.09,0007.22,0003.71
2023-09-16 22:30:00,SystemResetWarning,0835.7,5.00,000.00,027.9,026.9,000.0,036.2,029.7,19.6,0002.1,0004.07,0006.45,0003.71
2023-09-16 22:31:00,SystemResetWarning,0835.8,5.00,000.00,028.0,027.0,000.0,036.2,029.8,19.7,0002.8,0004.07,0006.37,0003.72
2023-09-16 22:32:00,SystemResetWarning,0835.7,4.99,000.00,028.0,027.1,000.0,036.2,029.8,18.9,0002.4,0004.08,0006.43,0003.72
2023-09-16 22:33:00,SystemResetWarning,0835.7,4.99,000.00,028.0,026.1,000.0,036.2,029.5,18.4,0002.3,0004.09,0006.53,0003.72
2023-09-16 22:34:00,SystemResetWarning,0835.6,5.00,000.00,027.9,025.0,000.0,036.2,029.3,18.9,0002.7,0004.09,0006.63,0003.72
2023-09-16 22:35:00,SystemResetWarning,0835.6,5.02,000.00,027.9,024.9,000.0,036.1,029.3,18.7,0003.0,0004.13,0006.89,0003.72
2023-09-16 22:36:00,SystemResetWarning,0835.6,4.98,000.00,027.8,025.2,000.0,036.2,029.3,18.6,0002.7,0004.14,0006.87,0003.72
2023-09-16 22:37:00,SystemResetWarning,0835.7,5.00,000.00,027.8,025.5,000.0,036.2,029.3,18.9,0003.0,0004.14,0006.94,0003.71
2023-09-16 22:38:00,SystemResetWarning,0835.7,5.01,000.00,027.8,025.8,000.0,036.2,029.4,18.8,0002.5,0004.14,0007.04,0003.72
2023-09-16 22:39:00,SystemResetWarning,0835.6,5.01,000.00,027.9,026.1,000.0,036.2,029.5,18.5,0002.1,0004.15,0007.70,0003.72
2023-09-16 22:40:00,SystemResetWarning,0835.6,4.99,000.00,027.9,026.3,000.0,036.2,029.6,18.6,0001.7,0004.14,0008.01,0003.71
2023-09-16 22:41:00,SystemResetWarning,0835.6,5.00,000.00,028.0,026.6,000.0,036.2,029.7,18.6,0001.0,0004.16,0008.06,0003.71
2023-09-16 22:42:00,SystemResetWarning,0835.8,5.00,000.00,028.0,026.8,000.0,036.2,029.8,18.9,0000.6,0004.16,0008.08,0003.71
2023-09-16 22:43:00,SystemResetWarning,0835.7,5.00,000.00,028.1,027.0,000.0,036.3,029.8,18.6,0000.1,0004.15,0008.24,0003.72
2023-09-16 22:44:00,SystemResetWarning,0835.7,4.99,000.00,028.1,027.0,000.0,036.3,029.9,18.2,0000.0,0004.14,0008.59,0003.72
2023-09-16 22:45:00,SystemResetWarning,0835.8,5.00,000.00,028.1,025.6,000.0,036.2,029.5,18.5,0000.0,0004.14,0008.53,0003.72
2023-09-16 22:46:00,SystemResetWarning,0835.6,5.00,000.00,028.0,024.8,000.0,036.2,029.3,19.0,0000.0,0004.11,0009.03,0003.71
2023-09-16 22:47:00,SystemResetWarning,0835.6,5.01,000.00,027.9,025.0,000.0,036.2,029.3,18.5,0000.0,0004.11,0009.43,0003.71
2023-09-16 22:48:00,SystemResetWarning,0835.8,5.00,000.00,027.9,025.2,000.0,036.2,029.3,18.8,0000.0,0004.12,0009.48,0003.72
2023-09-16 22:49:00,SystemResetWarning,0835.7,5.00,000.00,027.9,025.6,000.0,036.2,029.4,19.3,0000.0,0004.14,0009.65,0003.73
2023-09-16 22:50:00,SystemResetWarning,0835.8,5.00,000.00,027.9,025.9,000.0,036.2,029.5,19.1,0000.0,0004.12,0009.17,0003.73
2023-09-16 22:51:00,SystemResetWarning,0835.7,5.00,000.00,027.9,026.2,000.0,036.2,029.6,19.3,0000.0,0004.10,0008.76,0003.71
2023-09-16 22:52:00,SystemResetWarning,0835.7,5.00,000.00,028.0,026.4,000.0,036.3,029.7,18.6,0000.0,0004.09,0008.73,0003.70
2023-09-16 22:53:00,SystemResetWarning,0835.7,5.01,000.00,028.0,026.7,000.0,036.3,029.8,18.4,0000.0,0004.08,0008.67,0003.70
2023-09-16 22:54:00,SystemResetWarning,0835.6,5.00,000.00,028.1,026.9,000.0,036.3,029.8,18.5,0000.0,0004.07,0008.61,0003.70
2023-09-16 22:55:00,SystemResetWarning,0835.7,5.00,000.00,028.1,027.0,000.0,036.3,029.9,18.6,0000.0,0004.06,0008.21,0003.70
2023-09-16 22:56:00,SystemResetWarning,0835.6,4.98,000.00,028.1,025.8,000.0,036.3,029.6,18.7,0000.0,0004.07,0008.26,0003.71
2023-09-16 22:57:00,SystemResetWarning,0835.6,5.01,000.00,027.9,024.2,000.0,036.2,029.0,18.8,0000.0,0004.07,0007.97,0003.72
2023-09-16 22:58:00,SystemResetWarning,0835.7,5.01,000.00,027.8,023.9,000.0,036.2,029.0,19.4,0000.0,0004.07,0007.34,0003.72
2023-09-16 22:59:00,SystemResetWarning,0835.6,5.01,000.00,027.7,024.2,000.0,036.1,029.0,18.7,0000.0,0004.07,0007.38,0003.72
